Change the Weather History Date:

Thursday, November 7, 2013

  Actual Average Record
Temperature  
Mean Temperature 80 °F -  
Max Temperature 87 °F 82 °F - ()
Min Temperature 74 °F 66 °F - ()
Cooling Degree Days 16    
Growing Degree Days 30 (Base 50)    
Moisture  
Dew Point 59 °F    
Average Humidity 44    
Maximum Humidity 58    
Minimum Humidity 27    
Precipitation  
Precipitation 0.00 in 0.01 in - ()
Sea Level Pressure  
Sea Level Pressure 29.98 in    
Wind  
Wind Speed 6 mph ()    
Max Wind Speed 14 mph    
Max Gust Speed 17 mph    
Visibility 6.0 miles    
Events      
T = Trace of Precipitation, MM = Missing Value Source: Averaged Metar Reports

Daily Weather History Graph

Daily Weather History Graph

Search for Another Location

Airport or City:

Trip Planner

Search our weather history database for the weather conditions in past years. The results will help you decide how hot, cold, wet, or windy it might be!

Date:

Astronomy

Nov. 07, 2013 Rise Set
Actual Time 6:29 AM GST 5:34 PM GST
Civil Twilight 6:06 AM GST 5:57 PM GST
Nautical Twilight 5:38 AM GST 6:25 PM GST
Astronomical Twilight 5:11 AM GST 6:52 PM GST
Moon 10:11 AM GST (11/7) 9:23 PM GST (11/7)
Length of Visible Light 11h 51m
Length of Day
11h 04m
Waxing Crescent, 19% of the Moon is Illuminated
Nov 7
Waxing Crescent
Nov 10
First Quarter
Nov 17
Full
Nov 25
Last Quarter
Dec 3
New

Hourly Weather History & Observations

Time (GST) Temp. Heat Index Dew Point Humidity Pressure Visibility Wind Dir Wind Speed Gust Speed Precip Events Conditions
12:00 AM 80.6 °F 81.5 °F 60.8 °F 51% 29.98 in - East 5.8 mph - N/A   Clear
1:00 AM 79 °F - 59 °F 40% 29.98 in 6 mi East 8.1 mph - -  
1:00 AM 78.8 °F - 59.0 °F 51% 29.98 in - East 8.1 mph - N/A   Clear
3:00 AM 78.8 °F - 59.0 °F 51% 29.95 in - Variable 2.3 mph - N/A   Clear
4:00 AM 78 °F - 58 °F 40% 29.97 in 6 mi East 3.5 mph - -  
4:00 AM 78.8 °F - 57.2 °F 47% 29.95 in - East 3.5 mph - N/A   Clear
5:00 AM 77.0 °F - 57.2 °F 50% 29.98 in - East 3.5 mph - N/A   Clear
6:00 AM 75.2 °F - 59.0 °F 57% 29.98 in - East 4.6 mph - N/A   Clear
7:00 AM 74 °F - 58 °F 48% 30.01 in 6 mi East 3.5 mph - -  
7:00 AM 75.2 °F - 59.0 °F 57% 30.01 in - East 3.5 mph - N/A   Clear
8:00 AM 77.0 °F - 59.0 °F 54% 30.01 in - East 4.6 mph - N/A   Clear
9:00 AM 82.4 °F 82.0 °F 57.2 °F 42% 30.04 in - NE 4.6 mph - N/A   Clear
10:00 AM 85 °F - 58 °F 29% 30.04 in 6 mi NNE 9.2 mph - -  
10:00 AM 84.2 °F 83.5 °F 57.2 °F 40% 30.04 in - NNE 9.2 mph - N/A   Clear
11:00 AM 87.8 °F 85.7 °F 53.6 °F 31% 30.01 in - Variable 5.8 mph - N/A   Clear
12:00 PM 86.0 °F 84.5 °F 55.4 °F 35% 29.98 in - Variable 5.8 mph 17.3 mph N/A   Clear
1:00 PM 86 °F - 57 °F 27% 29.97 in 6 mi NW 10.4 mph - -  
1:00 PM 86.0 °F 84.9 °F 57.2 °F 37% 29.95 in - NW 10.4 mph - N/A   Clear
2:00 PM 87.8 °F 86.1 °F 55.4 °F 33% 29.95 in - NNW 13.8 mph - N/A   Clear
3:00 PM 86.0 °F 84.5 °F 55.4 °F 35% 29.92 in - NNW 13.8 mph - N/A   Clear
4:00 PM 87 °F - 60 °F 30% 29.93 in 6 mi NNW 13.8 mph - -  
4:00 PM 86.0 °F 85.4 °F 59.0 °F 40% 29.92 in - NNW 13.8 mph - N/A   Clear
5:00 PM 84.2 °F 83.8 °F 59.0 °F 42% 29.95 in - NNW 11.5 mph - N/A   Clear
6:00 PM 84.2 °F 84.4 °F 60.8 °F 45% 29.95 in - North 11.5 mph - N/A   Clear
7:00 PM 83 °F - 62 °F 38% 29.97 in 6 mi NNE 10.4 mph - -  
7:00 PM 82.4 °F 82.9 °F 60.8 °F 48% 29.95 in - NNE 10.4 mph - N/A   Clear
8:00 PM 82.4 °F 82.5 °F 59.0 °F 45% 29.98 in - NE 6.9 mph - N/A   Clear
9:00 PM 82.4 °F 82.9 °F 60.8 °F 48% 29.98 in - NE 6.9 mph - N/A   Clear
10:00 PM 81 °F - 64 °F 46% 29.99 in 6 mi NNE 5.8 mph - -  
10:00 PM 80.6 °F 82.3 °F 64.4 °F 58% 29.98 in - NNE 5.8 mph - N/A   Clear
11:00 PM 80.6 °F 82.3 °F 64.4 °F 58% 29.98 in - NNE 8.1 mph - N/A   Clear